Time,TemperatureF,DewpointF,PressureIn,WindDirection,WindDirectionDegrees,WindSpeedMPH,WindSpeedGustMPH,Humidity,HourlyPrecipIn,Conditions,Clouds,dailyrainin,SoftwareType,DateUTC
2013-02-19 00:02:00,43.0,-99.9,-100.00,SSW,194,0.0,-999.0,-999,-99.99,,,-99.99,,2013-02-19 08:02:00,
2013-02-19 00:12:00,43.0,-99.9,-100.00,SSW,194,0.0,-999.0,-999,-99.99,,,-99.99,,2013-02-19 08:12:00,
2013-02-19 00:20:00,41.0,-99.9,-100.00,SW,236,0.0,-999.0,-999,-99.99,,,-99.99,,2013-02-19 08:20:00,
2013-02-19 01:02:00,41.0,-99.9,-100.00,SW,236,0.0,-999.0,-999,-99.99,,,-99.99,,2013-02-19 09:02:00,
2013-02-19 01:11:00,41.0,-99.9,-100.00,SW,236,0.0,-999.0,-999,-99.99,,,-99.99,,2013-02-19 09:11:00,
2013-02-19 01:20:00,39.0,-99.9,-100.00,WSW,258,1.0,-999.0,-999,-99.99,,,-99.99,,2013-02-19 09:20:00,
2013-02-19 02:02:00,39.0,-99.9,-100.00,WSW,258,1.0,-999.0,-999,-99.99,,,-99.99,,2013-02-19 10:02:00,
2013-02-19 02:11:00,39.0,-99.9,-100.00,WSW,258,1.0,-999.0,-999,-99.99,,,-99.99,,2013-02-19 10:11:00,
2013-02-19 02:20:00,40.0,-99.9,-100.00,SSW,202,3.0,-999.0,-999,-99.99,,,-99.99,,2013-02-19 10:20:00,
2013-02-19 03:00:00,39.0,-99.9,-100.00,WSW,242,5.0,-999.0,-999,-99.99,,,-99.99,,2013-02-19 11:00:00,
2013-02-19 03:02:00,40.0,-99.9,-100.00,SSW,202,3.0,-999.0,-999,-99.99,,,-99.99,,2013-02-19 11:02:00,
2013-02-19 03:12:00,40.0,-99.9,-100.00,SSW,202,3.0,-999.0,-999,-99.99,,,-99.99,,2013-02-19 11:12:00,
2013-02-19 04:20:00,40.0,-99.9,-100.00,West,265,6.0,-999.0,-999,-99.99,,,-99.99,,2013-02-19 12:20:00,
2013-02-19 05:02:00,40.0,-99.9,-100.00,West,265,6.0,-999.0,-999,-99.99,,,-99.99,,2013-02-19 13:02:00,
2013-02-19 05:11:00,40.0,-99.9,-100.00,West,265,6.0,-999.0,-999,-99.99,,,-99.99,,2013-02-19 13:11:00,
2013-02-19 05:20:00,40.0,-99.9,-100.00,West,263,5.0,-999.0,-999,-99.99,,,-99.99,,2013-02-19 13:20:00,
2013-02-19 06:02:00,40.0,-99.9,-100.00,West,263,5.0,-999.0,-999,-99.99,,,-99.99,,2013-02-19 14:02:00,
2013-02-19 06:12:00,40.0,-99.9,-100.00,West,263,5.0,-999.0,-999,-99.99,,,-99.99,,2013-02-19 14:12:00,
2013-02-19 06:20:00,41.0,-99.9,-100.00,West,279,6.0,-999.0,-999,-99.99,,,-99.99,,2013-02-19 14:20:00,
2013-02-19 07:02:00,41.0,-99.9,-100.00,West,279,6.0,-999.0,-999,-99.99,,,-99.99,,2013-02-19 15:02:00,
2013-02-19 07:11:00,41.0,-99.9,-100.00,West,279,6.0,-999.0,-999,-99.99,,,-99.99,,2013-02-19 15:11:00,
2013-02-19 07:20:00,41.0,-99.9,-100.00,West,271,5.0,-999.0,-999,-99.99,,,-99.99,,2013-02-19 15:20:00,
2013-02-19 08:02:00,41.0,-99.9,-100.00,West,271,5.0,-999.0,-999,-99.99,,,-99.99,,2013-02-19 16:02:00,
2013-02-19 08:12:00,41.0,-99.9,-100.00,West,271,5.0,-999.0,-999,-99.99,,,-99.99,,2013-02-19 16:12:00,
2013-02-19 08:20:00,42.0,-99.9,-100.00,WNW,286,6.0,-999.0,-999,-99.99,,,-99.99,,2013-02-19 16:20:00,
2013-02-19 09:01:00,42.0,-99.9,-100.00,WNW,286,6.0,-999.0,-999,-99.99,,,-99.99,,2013-02-19 17:01:00,
2013-02-19 09:11:00,42.0,-99.9,-100.00,WNW,286,6.0,-999.0,-999,-99.99,,,-99.99,,2013-02-19 17:11:00,
2013-02-19 09:20:00,43.0,-99.9,-100.00,WNW,297,9.0,-999.0,-999,-99.99,,,-99.99,,2013-02-19 17:20:00,
2013-02-19 10:02:00,43.0,-99.9,-100.00,WNW,297,9.0,-999.0,-999,-99.99,,,-99.99,,2013-02-19 18:02:00,
2013-02-19 10:11:00,43.0,-99.9,-100.00,WNW,297,9.0,-999.0,-999,-99.99,,,-99.99,,2013-02-19 18:11:00,
2013-02-19 10:20:00,44.0,-99.9,-100.00,West,281,7.0,-999.0,-999,-99.99,,,-99.99,,2013-02-19 18:20:00,
2013-02-19 11:01:00,44.0,-99.9,-100.00,West,281,7.0,-999.0,-999,-99.99,,,-99.99,,2013-02-19 19:01:00,
2013-02-19 11:11:00,44.0,-99.9,-100.00,West,281,7.0,-999.0,-999,-99.99,,,-99.99,,2013-02-19 19:11:00,
2013-02-19 11:20:00,45.0,-99.9,-100.00,North,358,10.0,-999.0,-999,-99.99,,,-99.99,,2013-02-19 19:20:00,
2013-02-19 12:02:00,45.0,-99.9,-100.00,North,358,10.0,-999.0,-999,-99.99,,,-99.99,,2013-02-19 20:02:00,
2013-02-19 12:12:00,45.0,-99.9,-100.00,North,358,10.0,-999.0,-999,-99.99,,,-99.99,,2013-02-19 20:12:00,
2013-02-19 12:20:00,47.0,-99.9,-100.00,North,5,8.0,-999.0,-999,-99.99,,,-99.99,,2013-02-19 20:20:00,
2013-02-19 13:02:00,47.0,-99.9,-100.00,North,5,8.0,-999.0,-999,-99.99,,,-99.99,,2013-02-19 21:02:00,
2013-02-19 13:11:00,47.0,-99.9,-100.00,North,5,8.0,-999.0,-999,-99.99,,,-99.99,,2013-02-19 21:11:00,
2013-02-19 13:20:00,46.0,-99.9,-100.00,North,355,10.0,-999.0,-999,-99.99,,,-99.99,,2013-02-19 21:20:00,
2013-02-19 14:02:00,46.0,-99.9,-100.00,North,355,10.0,-999.0,-999,-99.99,,,-99.99,,2013-02-19 22:02:00,
2013-02-19 14:11:00,46.0,-99.9,-100.00,North,355,10.0,-999.0,-999,-99.99,,,-99.99,,2013-02-19 22:11:00,
2013-02-19 14:20:00,47.0,-99.9,-100.00,North,353,17.0,-999.0,-999,-99.99,,,-99.99,,2013-02-19 22:20:00,
2013-02-19 15:01:00,47.0,-99.9,-100.00,North,353,17.0,-999.0,-999,-99.99,,,-99.99,,2013-02-19 23:01:00,
2013-02-19 15:11:00,47.0,-99.9,-100.00,North,353,17.0,-999.0,-999,-99.99,,,-99.99,,2013-02-19 23:11:00,
2013-02-19 15:20:00,47.0,-99.9,-100.00,NNW,341,12.0,-999.0,-999,-99.99,,,-99.99,,2013-02-19 23:20:00,
2013-02-19 16:02:00,47.0,-99.9,-100.00,NNW,341,12.0,-999.0,-999,-99.99,,,-99.99,,2013-02-20 00:02:00,
2013-02-19 16:12:00,47.0,-99.9,-100.00,NNW,341,12.0,-999.0,-999,-99.99,,,-99.99,,2013-02-20 00:12:00,
2013-02-19 16:20:00,48.0,-99.9,-100.00,NNW,337,13.0,-999.0,-999,-99.99,,,-99.99,,2013-02-20 00:20:00,
2013-02-19 17:02:00,48.0,-99.9,-100.00,NNW,337,13.0,-999.0,-999,-99.99,,,-99.99,,2013-02-20 01:02:00,
2013-02-19 17:11:00,48.0,-99.9,-100.00,NNW,337,13.0,-999.0,-999,-99.99,,,-99.99,,2013-02-20 01:11:00,
2013-02-19 17:20:00,47.0,-99.9,-100.00,NNW,329,10.0,-999.0,-999,-99.99,,,-99.99,,2013-02-20 01:20:00,
2013-02-19 18:02:00,47.0,-99.9,-100.00,NNW,329,10.0,-999.0,-999,-99.99,,,-99.99,,2013-02-20 02:02:00,
2013-02-19 18:11:00,47.0,-99.9,-100.00,NNW,329,10.0,-999.0,-999,-99.99,,,-99.99,,2013-02-20 02:11:00,
2013-02-19 18:20:00,46.0,-99.9,-100.00,NW,325,6.0,-999.0,-999,-99.99,,,-99.99,,2013-02-20 02:20:00,
2013-02-19 19:02:00,46.0,-99.9,-100.00,NW,325,6.0,-999.0,-999,-99.99,,,-99.99,,2013-02-20 03:02:00,
2013-02-19 19:12:00,46.0,-99.9,-100.00,NW,325,6.0,-999.0,-999,-99.99,,,-99.99,,2013-02-20 03:12:00,
2013-02-19 19:20:00,44.0,-99.9,-100.00,West,268,3.0,-999.0,-999,-99.99,,,-99.99,,2013-02-20 03:20:00,
2013-02-19 20:02:00,44.0,-99.9,-100.00,West,268,3.0,-999.0,-999,-99.99,,,-99.99,,2013-02-20 04:02:00,
2013-02-19 20:11:00,44.0,-99.9,-100.00,West,268,3.0,-999.0,-999,-99.99,,,-99.99,,2013-02-20 04:11:00,
2013-02-19 20:20:00,43.0,-99.9,-100.00,West,273,1.0,-999.0,-999,-99.99,,,-99.99,,2013-02-20 04:20:00,
2013-02-19 21:02:00,43.0,-99.9,-100.00,West,273,1.0,-999.0,-999,-99.99,,,-99.99,,2013-02-20 05:02:00,
2013-02-19 21:12:00,43.0,-99.9,-100.00,West,273,1.0,-999.0,-999,-99.99,,,-99.99,,2013-02-20 05:12:00,
2013-02-19 21:20:00,42.0,-99.9,-100.00,WSW,256,2.0,-999.0,-999,-99.99,,,-99.99,,2013-02-20 05:20:00,
2013-02-19 22:02:00,42.0,-99.9,-100.00,WSW,256,2.0,-999.0,-999,-99.99,,,-99.99,,2013-02-20 06:02:00,
2013-02-19 22:12:00,42.0,-99.9,-100.00,WSW,256,2.0,-999.0,-999,-99.99,,,-99.99,,2013-02-20 06:12:00,
2013-02-19 22:20:00,41.0,-99.9,-100.00,South,179,1.0,-999.0,-999,-99.99,,,-99.99,,2013-02-20 06:20:00,
2013-02-19 23:02:00,41.0,-99.9,-100.00,South,179,1.0,-999.0,-999,-99.99,,,-99.99,,2013-02-20 07:02:00,
2013-02-19 23:11:00,41.0,-99.9,-100.00,South,179,1.0,-999.0,-999,-99.99,,,-99.99,,2013-02-20 07:11:00,
2013-02-19 23:20:00,40.0,-99.9,-100.00,SSE,165,3.0,-999.0,-999,-99.99,,,-99.99,,2013-02-20 07:20:00,